Location: Ferma
(41.9500°N, 44.5167°E)
Time: 19:27:18
(UTC+00:00)

CENTAUR R/B - Visible Passes

Search period start: 25 May 2022 00:00
Search period end: 04 June 2022 00:00
Orbit: 716 x 1471 km, 63.4° (Epoch: 08 May)

Date Brightness Start Highest point End Pass type
(mag) Time Alt. Az. Time Alt. Az. Time Alt. Az.
25 May 5.0 18:22:10 10° WNW 18:28:19 22° WSW 18:34:41 10° SSW visible
26 May 4.5 17:32:50 10° NW 17:40:20 35° WSW 17:48:13 10° S visible
27 May 4.0 16:44:01 10° NW 16:52:11 54° WSW 17:00:54 10° S visible
27 May 5.6 18:40:15 10° W 18:41:32 10° W 18:42:49 10° WSW visible
28 May 5.3 17:48:05 10° WNW 17:53:45 20° WSW 17:59:37 10° SSW visible
29 May 4.8 16:58:32 10° NW 17:05:49 32° WSW 17:13:26 10° SSW visible
31 May 5.4 17:14:03 10° WNW 17:19:11 17° WSW 17:24:27 10° SW visible
